www.pogodaiklimat.ru

Погода и климат >> Архив погоды >> Россия >> Коми >> Ухта


АРХИВ ПОГОДЫ в Ухте

Время (UTC), дата Ветер
(напр.,м/с)
 
Видим.   Явления Облачность Т
(С)
Тd
(С)
f
(%)
Тe
(С)
Тes
(С)
Комфортность P
(гПа)
Po
(гПа)
Тmin
(С)
Tmax
(С)
R
(мм)
R24
(мм)
S
(см)
18 16.01 ЮВ 4 3000 м снег 10/10 210 м
[Frnb]
-6.5 -7.3 94 -13 -13 тепло 1000.2 982.7
21 16.01 В 5 2100 м снег 10/10 210 м
[Frnb]
-6.1 -7.2 92 -14 -14 тепло 994.4 977.1
00 17.01 ЮВ 5 3800 м снег 10/10 240 м
[Frnb]
-5.4 -6.4 93 -13 -13 тепло 989.3 972.2
03 17.01 Ю 5 6000 м слаб. снег 10/10 420 м
[Sc]
-3.5 -5.3 87 -10 -10 тепло 988.0 971.0 -6.5 4 54
06 17.01 Ю 4 10 км слаб. снег 10/8 330 м
[Sc As op]
-3.4 -4.5 92 -10 -10 тепло 988.4 971.4
09 17.01 ЮЗ 4
{11}
12 км в посл. час ливневой снег 8/6 480 м
[Cb calv Ac trans]
-5.9 -8.5 82 -12 -12 тепло 991.3 974.0
12 17.01 Ю 3 12 км в посл. час ливневой снег 8/4 300 м
[Sc diur, vesp Ac trans]
-8.0 -10.7 81 -14 -14 по сезону 992.2 974.8
15 17.01 Ю 4
{10}
10 км слаб. снег 10/0
[Ac As]
-8.5 -10.4 86 -15 -15 по сезону 992.0 974.6 -3.2 0.9
18 17.01 Ю 4 10 км слаб. снег 10/6 480 м
[Sc As op]
-7.8 -10.0 84 -15 -15 по сезону 992.0 974.6
21 17.01 Ю 4 10 км слаб. снег 10/6 480 м
[Sc As op]
-7.2 -9.3 85 -14 -14 тепло 991.9 974.6
00 18.01 Ю 4 6000 м слаб. снег 10/8 360 м
[Sc As op]
-6.7 -8.3 88 -13 -13 тепло 991.5 974.2
03 18.01 Ю 3 10 км слаб. снег 10/6 600 м
[Sc As op]
-6.8 -9.2 83 -12 -12 тепло 990.9 973.6 -8.5 0.7 56
06 18.01 Ю 4 10 км слаб. снег 10/3 300 м
[Sc As op]
-9.1 -10.6 89 -16 -16 по сезону 990.3 972.8 -9.6
09 18.01 Ю 3 1600 м снег 10/6 300 м
[Sc As op]
-7.6 -9.4 87 -13 -13 тепло 989.3 972.0
12 18.01 ЮВ 2 2500 м снег 10/6 300 м
[Sc As op]
-7.7 -9.1 90 -12 -12 тепло 989.0 971.7
15 18.01 штиль 0 2100 м снег 10/6 210 м
[Frnb As op]
-7.8 -8.8 93 -9 -9 тепло 989.4 972.1 -6.4 3
18 18.01 штиль 0 5000 м слаб. снег 10/4 300 м
[Sc As op]
-8.6 -9.3 95 -9 -9 тепло 990.8 973.4
21 18.01 штиль 0 10 км слаб. снег 10/6 900 м
[Sc As op]
-9.3 -10.0 95 -10 -10 тепло 992.2 974.7
00 19.01 ЮВ 1 5000 м слаб. снег 10/6 600 м
[Sc As op]
-9.2 -9.9 95 -12 -12 тепло 993.5 976.0
03 19.01 1500 м сильн. снег 10/6 180 м
[Frnb As op]
-8.6 -9.3 95 995.5 978.0 -9.3 2 59
06 19.01 12 км в посл. час снег 10/6 450 м
[Sc As op]
-10.4 -11.7 90 998.0 980.3 -10.4
09 19.01 СВ 2 12 км {снег} 10/10 330 м
[Sc]
-11.8 -13.1 90 -16 -16 по сезону 999.4 981.6
12 19.01 С 2 10 км слаб. снег 10/8 330 м
[Sc As op]
-12.4 -13.7 90 -17 -17 по сезону 1000.7 982.8
15 19.01 С 2 10 км слаб. снег 10/8 240 м
[Frnb As op]
-12.4 -13.7 90 -17 -17 по сезону 1002.1 984.2 -8.6 0.5
18 19.01 СВ 2 10 км {снег} 10/6 210 м
[Frnb As trans]
-15.4 -17.3 85 -20 -20 по сезону 1003.3 985.1
21 19.01 С 1 6000 м слаб. снег 10/3 300 м
[Sc As op]
-16.9 -18.8 85 -20 -20 по сезону 1003.9 985.6
00 20.01 1800 м сильн. снег 10/6 240 м
[Frnb As op]
-17.3 -19.2 85 1004.3 986.0
03 20.01 3300 м снег 10/6 300 м
[Sc As op]
-17.5 -20.1 80 1004.4 986.1 -17.7 2 61
06 20.01 штиль 0 10 км слаб. снег 10/5 400 м
[Sc As op]
-17.4 -19.3 85 -17 -17 по сезону 1005.0 986.7
09 20.01 Ю 2 12 км {снег} 10/5 480 м
[Sc Ac trans Ci fib]
-14.6 -16.6 85 -20 -19 по сезону 1005.4 987.3
12 20.01 штиль 0 12 км {снег} 10/0
[Ac trans Ci fib]
-19.3 -21.2 85 -19 -19 по сезону 1006.6 988.0
15 20.01 Ю 2 10 км слаб. снег 10/0
[As op]
-18.1 -20.0 85 -24 -24 прохладно 1006.5 988.0 -14.5 0.5
18 20.01 Ю 2 7000 м слаб. снег 10/0
[As op]
-19.6 -21.5 85 -25 -25 холодно 1006.3 987.7
21 20.01 Ю 2 10 км слаб. снег 10/0
[As op]
-20.4 -22.3 85 -26 -26 холодно 1006.3 987.7
00 21.01 Ю 2 10 км слаб. снег 10/0
[As op]
-21.4 -23.9 80 -27 -27 прохладно 1006.1 987.4
03 21.01 штиль 0 4000 м дымка {снег} 10/8 150 м
[Frnb Cs]
-21.6 -23.4 85 -22 -22 по сезону 1005.2 986.5 -24.6 0.6 60
06 21.01 штиль 0 12 км {снег} 8/0
[Ac trans Ci fib]
-24.3 -26.8 80 -24 -24 по сезону 1004.1 985.2 -24.4
09 21.01 В 1 10 км слаб. снег 10/6 450 м
[Sc Ac As]
-20.4 -22.9 80 -23 -23 по сезону 1003.1 984.6
12 21.01 12 км {снег} 10/0
[Ac As]
-21.9 -23.7 85 1002.5 983.8 -12.3
15 21.01 10 км слаб. снег 10/0
[As op]
-22.4 -24.9 80 1002.5 983.8 -20.4 0.6
18 21.01 штиль 0 10 км слаб. снег 10/0
[As op]
-25.6 -28.1 79 -26 -26 прохладно 1002.6 983.6
21 21.01 штиль 0 10 км {снег} 10/0
[As trans]
-25.6 -28.1 79 -26 -26 прохладно 1002.6 983.6
00 22.01 штиль 0 10 км {снег} 10/0
[As trans]
-28.3 -30.6 81 -28 -28 прохладно 1003.1 983.9 -13.4
03 22.01 штиль 0 10 км 10/0
[Ac As]
-28.0 -30.4 80 -28 -28 прохладно 1003.8 984.6 -28.6 0.0 61
06 22.01 штиль 0 10 км {снег} 10/3 300 м
[Sc Ac trans Ci fib]
-28.2 -30.6 80 -28 -28 прохладно 1003.9 984.7 -28.8
09 22.01 10 км 10/1 300 м
[Sc Cs]
-25.4 -27.8 80 1004.5 985.5
12 22.01 10 км слаб. снег 10/0
[Ac As]
-24.4 -26.9 80 1004.7 985.8
15 22.01 З 3 4200 м слаб. снег 10/0
[Ac As]
-24.0 -26.5 80 -32 -32 опасность
обморожения
1004.7 985.8 -24.0 0.4
18 22.01 З 3 3000 м снег 10/0
[As op]
-23.8 -26.3 80 -32 -32 опасность
обморожения
1005.0 986.1
21 22.01 З 3 2100 м снег 10/0
[As op]
-22.9 -25.4 80 -31 -31 опасность
обморожения
1006.0 987.2
00 23.01 З 2 10 км в посл. час снег 10/0
[Ac As]
-23.7 -26.1 81 -30 -30 холодно 1007.3 988.3
03 23.01 З 3 10 км 10/0
[Ac trans Ci fib]
-24.3 -26.8 80 -33 -33 опасность
обморожения
1008.1 989.1 -24.3 0.9 61
06 23.01 ЮЗ 3 10 км 8/6 360 м
[Sc Ac trans]
-24.2 -26.6 80 -33 -33 опасность
обморожения
1009.5 990.5 -24.3
09 23.01 ЮЗ 3 5000 м дымка 8/4 300 м
[Sc Ac trans]
-23.0 -25.5 80 -31 -31 опасность
обморожения
1011.2 992.3
12 23.01 ЮЗ 2 10 км 10/6 180 м
[St As trans]
-23.1 -25.5 81 -29 -29 холодно 1012.5 993.5

 

Местоположение метеостанции Ухта (Коми, Россия): широта 63.55 долгота 53.82 высота над уровнем моря 137 м.

В архиве по умолчанию представлена погода в Ухте за последнюю неделю. Архивные данные за месяц целиком и за предыдущие месяцы, начиная с января 2011 года, Вы можете получить, выбрав интересующий диапазон дат из раскрывающегося списка и нажав кнопку "Ввод!".


*Определитесь, кто Вы:
робот инопланетянин человек

Внимание! Время в таблицах - всемирное. Для получения местного времени необходимо прибавить поправку, которая равна 3 ч.

Смотрите также архив погоды в соседних городах и на ближайших метеорологических станциях:

Погода в Кедва-Воме (Коми, Россия) (76 км)
Погода в Ираеле (Коми, Россия) (133 км)
Погода в Троицко-Печорском (Коми, Россия) (152 км)
Погода в Помоздино (Коми, Россия) (154 км)
Погода в Весляне (Коми, Россия) (159 км)
Погода в Ижме (Коми, Россия) (161 км)
Погода в Луни (Коми, Россия) (162 км)
Погода в Вуктыле (Коми, Россия) (176 км)
Погода в Усть-Щугоре (Коми, Россия) (202 км)
Погода в Усть-Куломе (Коми, Россия) (208 км)

Пояснения к столбцам:

Ветер - указаны скорость ветра в м/с - средняя за 10 мин, порывы в срок и между сроками (в фигурных скобках) и направление, откуда дует ветер: С - северный, СВ - северо-восточный, В - восточный, ЮВ - юго-восточный, Ю - южный, ЮЗ - юго-западный, З - западный, СЗ - северо-западный.
Видимость - горизонтальная дальность видимости в метрах или километрах. При видимости от 1 до 10 км при отсутствии осадков обычно наблюдается дымка, при ухудшении видимости до 1 км и менее - туман. В сухую погоду видимость может ухудшаться дымом, пылью или мглою.
Явления - указаны атмосферные явления, наблюдавшиеся в срок или в последний час перед сроком; фигурными скобками обозначены явления, наблюдавшиеся между сроками (за 1-3 часа до срока); квадратными скобками обозначены град или гололедные отложения с указанием их диаметра в мм.
Облачность - указаны через наклонную черту общая и нижняя облачность в баллах и высота нижней границы облаков в метрах; квадратными скобками обозначены формы облаков: Ci - перистые, Cs - перисто-слоистые, Cc - перисто-кучевые, Ac - высококучевые, As - высокослоистые, Sc - слоисто-кучевые, Ns - слоисто-дождевые, Cu - кучевые, Cb - кучево-дождевые. Подробнее классификацию облаков см. в Атласе облаков (PDF).
T - Температура воздуха - температура, измеренная на высоте 2 м над землей.
Td - Температура точки росы - температура, при понижении до которой содержащийся в воздухе водяной пар достигнет насыщения.
f - Относительная влажность воздуха - влажноcть воздуха, измеренная на высоте 2 м над землей.
Te - Эффективная температура - температура, которую ощущает одетый по сезону человек в тени. Характеристика душности погоды. При расчете учитывается влияние влажности воздуха и скорости ветра на теплоощущения человека.
Tes - Эффективная температура на солнце - температура, которую ощущает человек, с поправкой на солнечный нагрев. Характеристика знойности погоды. Зависит от высоты солнца над горизонтом, облачности и скорости ветра. Ночью, в пасмурную погоду, а также при ветре 12 м/с и более поправка равна нулю.
P - Атмосферное давление - приведенное к уровню моря атмосферное давление.
Po - Атмосферное давление - измеренное на уровне метеостанции атмосферное давление.
Tmin - Минимальная температура - минимум температуры воздуха на высоте 2 м над землей.
Tmax - Максимальная температура - максимум температуры воздуха на высоте 2 м над землей.
R - Количество осадков - Количество выпавших осадков за период времени, мм. При наведении курсора мыши на число - период времени, за который выпало указанное количество осадков.
R24 - Количество осадков - Количество выпавших осадков за 24 часа, мм.
S - Снежный покров - Высота снежного покрова, см. При наведении курсора мыши на число - состояние снежного покрова и степень покрытия местности в баллах.